Miscellaneous Local Product
Issued by NWS North Platte, NE

Home | Current Version | Previous Version | Graphics & Text | Print | Product List | Glossary On
Versions: 1 2 3 4 5 6 7 8 9 10 11 12 13 14 15 16 17 18 19 20 21 22 23 24 25 26 27 28 29 30 31 32 33 34 35 36 37 38 39 40 41 42 43 44 45 46 47 48 49 50
000
AXUS43 KLBF 031910
MISLBF


WESTERN AND NORTH CENTRAL NEBRASKA HOURLY WEATHER ROUNDUP
NATIONAL WEATHER SERVICE NORTH PLATTE NE
200 PM CDT MON AUG 03 2015

***STATIONS NOT REPORTING VARIABLES SUCH AS SKY/WEATHER OR
PRESSURE ARE PROVIDED BY THE NEBRASKA DEPARTMENT OF
ROADS...RAWS...AND APRS NETWORKS...AND ARE NOT UNDER
NATIONAL WEATHER SERVICE QUALITY CONTROL***

...OBSERVATIONS IN AND NEAR THE EASTERN PANHANDLE OF NEBRASKA...

CITY           SKY/WX    TMP DP  RH WIND       PRES   REMARKS
PINE RIDGE     MOSUNNY   82  61  48 E8        30.01F
CHADRON        PTSUNNY   84  61  45 SE12      29.98F
ALLIANCE       PTSUNNY   86  58  38 SE13      30.01F
SIDNEY         CLOUDY    91  57  31 S13G18    30.04F
BIG SPRINGS      N/A     85  67  54 SE7         N/A
$$

...OBSERVATIONS IN NORTH CENTRAL NEBRASKA...

CITY           SKY/WX    TMP DP  RH WIND       PRES   REMARKS
THEDFORD       MOSUNNY   84  61  44 SE13G20   30.03S
AINSWORTH      SUNNY     81  59  47 E9        30.03F
O`NEILL        SUNNY     81  56  42 NE9       30.02S
ORD            MOSUNNY   83  60  45 NE9       29.99F
BROKEN BOW     MOSUNNY   86  60  41 E9G20     30.00F
SPRINGVIEW       N/A     81  63  53 MISG        N/A
CHAMBERS         N/A     84  58  41 N3          N/A
EWING            N/A     80  65  59 S3          N/A
$$

...OBSERVATIONS IN SOUTHWEST NEBRASKA AND FAR NORTHEAST COLORADO...

CITY           SKY/WX    TMP DP  RH WIND       PRES   REMARKS
WRAY           FAIR      90  59  34 E6        30.01F
HOLYOKE        FAIR      84  61  45 SE10      30.03S
IMPERIAL       CLOUDY    84  62  47 SE10      30.01S
OGALLALA       PTSUNNY   84  64  50 SE8       30.00F
NORTH PLATTE   MOSUNNY   83  68  60 SE13      30.00F
MCCOOK         CLOUDY    86  68  54 E10       29.98S
LEXINGTON      MOSUNNY   83  67  59 SE12      30.00S
PAXTON           N/A     83  70  64 SE6         N/A
BRADY            N/A     82  69  66 CALM        N/A
CALLAWAY         N/A     81  72  73 SE13        N/A
$$

...NORTH PLATTE AREA...

CITY           SKY/WX    TMP DP  RH WIND       PRES   REMARKS
AIRPORT        MOSUNNY   83  68  60 SE13      30.00F
DOWNTOWN         N/A     84  69  60 E3G13       N/A
SANDRIDGE        N/A     84  69  60 E3G12       N/A
HILLCREST        N/A     82  67  59 SE10G17     N/A
$$

...SOME WEATHER OBSERVATIONS FROM AROUND THE REGION...

CITY           SKY/WX    TMP DP  RH WIND       PRES   REMARKS
DENVER         CLOUDY    86  29  12 SE12G24   30.10F
LARAMIE        PTSUNNY   82  35  18 SE24G31   30.18F
CHEYENNE       PTSUNNY   85  37  18 S12G32    30.13F
SCOTTSBLUFF    PTSUNNY   82  58  43 E9        30.01F
RAPID CITY     SUNNY     82  57  42 SE10G17   30.02F
PIERRE         SUNNY     82  53  36 E6        29.98F
WINNER         FAIR      84  54  35 VRB6      30.01S
SIOUX FALLS    MOSUNNY   79  56  45 VRB3      29.99F
OMAHA          CLOUDY    78  64  61 SE7       29.97S
GRAND ISLAND   MOSUNNY   81  65  58 E8        30.00S
KANSAS CITY    PTSUNNY   81  68  64 E8        29.94F
WICHITA        PTSUNNY   90  70  51 S8        29.93S HX  95
HAYS           MOSUNNY   90  64  43 SE7       29.95S HX  91
LIBERAL        SUNNY     88  64  45 S13G20    29.97
GOODLAND       PTSUNNY   89  54  30 SE13G20   30.01F
$$



USA.gov is the U.S. government's official web portal to all federal, state and local government web resources and services.